Temp
12 12 11 11 11 11 11 11 11 11 11 11 11 11 11 11 11 11 11 11 11 11 11 11 11 11 11 11 11 11 10 10 10 10 10 10 10 10 10 11 11 11 11 11 11 11 11 11 11 11 11 10 10 10 10 10 10 10 10 10 11 11 11 11 11 11 12 12 12 13 13 14 15 16 17 18 18 17 17 16 16 16 16 16 16
12 11 11 11 11 11 11 11 11 11 11 11 11 11 11 11 11 11 11 11 11 11 11 11 11 11 11 11 10 10 10 10 10 10 10 10 10 10 10 10 10 10 11 11 11 11 11 11 11 11 10 10 10 9 9 9 9 9 9 9 9 10 9 10 10 10 11 11 11 12 12 13 14 15 16 16 17 18 17 17 16 16 16 16 16
12 11 11 11 11 11 11 11 11 11 11 11 11 11 11 11 11 11 11 11 10 10 10 10 10 11 10 10 10 10 10 9 9 9 9 9 10 10 10 10 10 10 11 11 11 11 11 11 11 10 10 9 9 8 8 8 8 8 8 8 8 8 8 9 9 9 10 10 10 11 11 12 13 14 14 15 16 17 17 17 17 17 16 16 15
12 11 11 11 11 11 11 11 11 11 11 10 10 10 10 11 11 11 11 11 10 10 10 10 10 10 10 10 10 9 9 9 9 9 9 9 9 10 10 10 10 10 10 10 10 10 10 10 10 10 9 8 8 7 7 7 7 7 7 7 7 7 7 7 8 8 8 9 9 10 10 11 12 13 14 14 15 16 17 17 17 17 17 17 16
11 11 11 10 10 10 11 11 11 10 10 10 10 10 10 10 10 10 10 10 10 10 10 10 10 10 10 9 9 9 8 8 8 8 8 8 9 9 10 9 10 10 10 10 10 10 10 10 9 8 8 7 7 7 7 6 6 6 6 6 7 7 7 7 7 7 7 8 8 9 9 10 11 12 13 14 15 15 16 17 18 17 17 18 17
11 11 11 11 11 11 11 11 10 10 10 10 10 10 10 10 10 10 10 10 10 10 10 10 10 10 9 9 8 8 7 7 7 6 7 8 8 9 10 9 10 10 10 10 9 9 9 9 8 8 7 7 6 6 6 6 6 6 6 6 6 6 6 6 7 7 7 7 8 8 9 10 11 12 13 14 15 15 16 17 17 17 17 17 17
11 11 11 11 11 11 11 10 10 10 10 10 10 10 10 10 10 10 10 10 10 10 10 9 9 9 9 8 8 7 6 6 6 6 5 6 8 9 9 9 10 10 9 9 9 9 9 8 8 7 7 6 6 6 5 5 5 5 5 5 5 5 5 6 6 6 7 7 8 8 9 10 10 11 12 13 14 15 16 16 17 18 17 17 16
11 11 11 11 11 11 11 10 10 10 10 10 10 10 10 10 10 9 9 9 10 10 10 10 9 9 9 8 7 6 5 5 6 6 5 5 7 9 10 9 9 9 9 9 9 9 9 8 8 7 6 6 5 5 5 4 4 4 4 4 4 4 4 5 5 6 6 7 7 8 8 9 10 10 11 12 13 14 15 16 16 17 17 17 16
11 11 11 11 11 11 10 10 10 10 10 10 10 10 9 9 9 9 9 9 9 9 9 10 9 9 8 8 7 6 5 5 5 5 5 4 5 8 9 9 9 9 9 9 9 9 8 8 7 7 6 5 5 5 4 4 3 3 3 3 3 3 3 4 4 5 5 6 7 7 8 8 9 10 10 11 11 12 13 13 14 15 16 16 17
12 11 11 11 11 11 11 10 10 10 10 10 10 9 9 9 9 9 9 9 9 9 9 9 9 9 8 8 7 6 5 5 5 5 5 5 5 6 8 9 9 9 9 8 8 8 8 8 7 6 6 5 5 5 4 3 3 2 2 2 2 2 3 3 4 4 5 6 6 7 7 8 8 8 9 9 10 10 11 12 13 14 15 16 17
12 12 12 11 11 11 11 11 11 10 10 10 10 9 9 9 9 8 8 8 8 9 9 9 9 9 8 7 6 5 5 5 6 6 6 6 6 6 8 9 9 8 8 8 8 8 8 7 6 6 6 5 5 4 4 3 3 2 2 2 2 3 3 3 4 4 5 5 6 6 6 7 7 7 8 8 8 9 9 10 11 12 13 14 16
12 12 12 12 11 11 11 11 10 10 10 9 9 9 8 8 8 8 8 8 8 8 8 8 8 8 8 7 6 5 5 5 6 6 6 6 6 7 8 8 9 8 8 8 8 8 7 6 6 6 6 5 5 4 3 2 2 2 2 3 3 4 4 4 4 4 5 5 5 6 6 6 6 7 7 7 8 8 8 9 9 10 11 12 14
12 12 12 11 11 11 11 10 10 9 9 8 8 8 8 8 8 8 8 8 8 8 8 8 8 8 8 7 6 5 5 5 6 6 6 6 7 7 8 8 8 8 8 8 8 8 7 6 6 6 6 5 4 3 2 2 2 2 3 3 4 4 4 4 4 4 5 4 5 5 5 5 6 6 6 7 7 7 7 8 8 9 9 11 12
12 11 11 11 11 10 10 10 9 9 9 9 9 9 9 9 9 8 8 8 8 8 8 8 8 8 8 7 6 5 4 5 6 6 6 6 7 7 8 8 8 8 8 8 8 8 7 6 6 6 5 5 4 2 1 1 2 2 3 3 4 4 4 4 5 4 4 4 3 3 4 4 4 5 5 5 5 6 6 7 7 8 8 9 10
11 11 11 11 11 11 11 10 10 10 10 9 9 9 9 9 9 9 9 9 8 8 8 7 7 7 8 8 6 5 4 5 6 6 6 7 7 8 8 8 8 8 8 8 8 8 7 6 6 6 5 5 3 2 1 1 1 2 3 3 3 3 4 4 4 4 3 3 2 3 3 3 3 3 4 4 4 5 5 5 6 6 7 7 8
11 11 11 11 11 11 11 10 10 10 10 10 9 9 9 9 9 9 9 9 9 8 8 8 7 7 7 8 7 5 4 4 5 5 6 6 7 8 8 8 8 9 8 8 9 8 7 6 6 5 5 4 3 3 2 1 2 3 3 3 3 3 4 4 3 3 2 2 2 2 2 2 3 3 3 4 4 4 4 5 5 5 5 6 7
12 11 11 11 11 11 11 11 10 10 10 10 10 9 9 9 9 9 9 9 9 8 8 8 7 7 7 7 7 5 4 4 4 5 5 6 6 7 8 8 8 9 9 8 9 8 7 6 6 5 4 4 3 3 2 2 2 3 3 3 3 3 3 3 2 2 2 2 2 2 2 2 2 3 3 4 4 4 4 4 4 5 5 6 7
12 12 12 11 11 11 11 11 10 10 10 10 9 9 9 9 9 9 9 9 9 9 9 8 7 7 6 6 6 6 4 4 4 4 4 5 6 6 7 7 8 9 9 8 9 8 7 7 6 5 4 4 4 4 3 2 2 3 3 3 2 3 3 2 2 2 2 2 2 2 2 2 2 2 3 3 4 4 4 4 5 5 6 6 7
12 12 11 11 11 11 11 11 10 10 10 10 9 9 9 10 10 10 10 10 10 9 9 8 8 7 7 6 6 6 5 5 4 4 4 4 5 6 6 7 7 8 8 9 9 8 8 7 6 5 4 4 4 4 4 3 3 3 3 3 2 2 2 2 2 2 2 2 3 3 2 2 2 1 2 3 3 4 4 4 5 5 6 6 7
12 11 11 11 11 11 10 10 10 10 10 9 9 9 10 10 10 10 10 10 10 9 9 9 8 8 7 7 6 6 6 5 5 4 4 4 4 5 5 6 6 6 8 9 9 8 8 7 6 5 5 5 5 5 4 4 3 4 4 3 2 2 2 2 2 2 2 2 2 2 2 2 1 1 1 2 3 3 4 4 5 5 6 6 7
11 11 11 11 11 10 10 10 10 10 9 9 9 9 10 10 10 10 10 10 10 9 9 9 9 8 8 8 7 6 6 6 5 4 4 4 4 4 5 5 4 5 7 8 8 8 8 7 6 5 5 5 6 5 5 5 4 4 4 3 3 3 2 2 2 2 2 2 2 2 2 2 1 1 1 1 2 3 3 4 5 6 6 6 7
11 11 11 11 10 10 10 9 9 9 9 9 10 10 10 10 10 10 10 10 10 10 10 10 9 9 9 8 8 7 6 6 6 5 4 4 4 4 4 4 4 4 6 7 8 8 7 7 6 6 5 5 6 6 5 5 5 5 4 4 4 3 3 3 3 3 3 3 2 2 2 2 1 1 1 1 2 3 3 4 5 6 7 7 7
11 11 11 10 10 10 9 9 9 9 9 10 10 10 10 10 10 10 10 10 10 10 10 10 10 10 9 9 9 8 7 7 6 5 5 5 5 5 4 4 4 4 5 6 7 7 7 7 6 6 6 6 6 6 6 6 5 5 5 4 4 4 4 4 3 3 3 3 2 2 2 2 1 1 1 1 1 2 3 4 4 6 6 7 7
11 11 10 10 10 9 9 9 9 9 10 10 10 10 10 10 10 11 11 11 11 11 11 10 10 10 10 10 9 9 8 8 7 6 5 5 5 5 5 5 5 5 5 6 6 6 6 6 6 6 6 6 6 6 7 6 6 6 5 5 5 5 4 4 4 3 3 3 3 2 2 2 2 1 1 1 1 2 2 3 4 5 5 6 6
11 10 10 10 10 10 10 10 10 10 10 10 10 10 10 11 11 11 11 11 11 11 11 11 10 10 10 10 9 9 8 8 7 6 6 5 5 5 5 5 5 5 5 6 6 5 6 6 6 6 6 6 6 7 7 7 6 6 5 5 5 5 5 4 4 4 3 3 3 3 3 2 2 1 1 1 1 1 2 2 3 4 5 5 5
10 10 10 10 10 10 10 10 10 10 10 11 11 11 11 11 11 11 11 11 11 11 11 11 10 10 10 10 10 9 8 8 7 6 6 5 5 5 5 5 5 5 6 6 5 5 5 6 7 7 7 7 7 7 7 7 7 7 6 6 6 6 5 5 4 4 4 4 3 3 3 3 2 1 1 1 1 1 1 1 2 3 3 4 5
11 11 11 11 11 11 11 10 10 10 11 11 11 11 11 11 11 11 11 11 11 11 11 10 10 10 10 10 10 9 9 8 7 6 5 5 5 5 5 5 5 5 6 5 5 5 5 6 7 7 7 7 7 7 8 7 7 7 7 7 7 6 6 5 5 5 4 4 4 4 3 3 2 2 1 1 1 1 1 1 1 1 2 3 4
11 11 11 11 11 11 11 11 11 11 11 11 11 11 11 11 10 10 10 10 10 10 10 10 10 10 10 9 9 9 9 7 6 5 4 4 4 4 4 5 4 5 5 5 5 5 6 7 8 7 7 8 7 7 8 8 7 7 7 7 7 7 6 6 6 5 5 5 4 4 3 3 3 2 1 1 1 0 1 1 1 1 1 1 2
11 11 11 11 11 11 11 11 11 11 11 11 11 10 10 10 10 9 8 8 8 8 9 9 8 8 9 8 8 8 8 7 5 4 4 4 3 3 4 4 4 4 5 5 5 5 6 8 8 8 8 7 7 7 8 8 7 7 7 7 7 7 7 7 6 6 5 5 5 4 4 3 3 2 1 1 1 0 0 0 1 0 0 1 1
11 11 11 11 11 11 11 11 11 11 11 11 10 9 9 9 9 8 8 7 7 7 7 7 7 7 8 8 7 6 6 5 5 5 4 4 4 4 4 5 5 5 6 6 5 6 7 8 8 8 8 8 7 7 7 8 8 7 7 8 7 7 7 6 6 6 6 5 5 4 4 4 3 3 2 1 1 1 1 0 0 0 0 0 0
11 11 11 11 11 11 11 12 12 12 11 11 10 10 9 8 8 8 8 7 7 7 7 6 6 6 7 6 6 6 5 5 5 5 5 5 5 5 5 5 5 6 6 6 5 6 8 8 8 8 8 8 7 7 7 8 8 7 7 8 7 7 7 6 6 6 6 6 5 5 5 4 4 3 3 2 1 1 1 1 0 0 0 0 0
11 12 12 11 11 11 12 12 12 12 12 11 11 11 10 9 8 7 7 7 7 7 7 6 6 6 6 6 6 5 5 5 5 5 5 5 5 5 6 6 6 6 7 6 6 7 8 8 8 8 8 8 8 7 7 7 8 7 7 8 7 7 7 6 6 6 6 6 6 6 5 5 4 4 3 3 2 1 1 1 1 0 0 0 0
11 12 12 11 11 12 12 12 12 12 12 12 12 12 12 11 9 8 7 7 7 7 7 7 7 6 6 6 6 6 5 5 5 5 6 6 6 6 6 6 7 7 7 7 8 8 8 8 8 8 8 8 8 7 7 7 7 7 7 8 7 7 6 6 6 6 6 6 6 6 6 5 5 5 4 4 3 2 1 1 1 1 1 1 0
12 12 12 11 11 12 12 12 12 12 12 12 12 12 12 12 11 10 9 7 7 7 7 7 7 7 7 7 6 6 6 6 6 6 6 6 6 6 6 7 8 8 8 8 8 8 8 8 8 8 8 8 8 8 7 7 7 7 7 7 7 6 6 6 6 5 6 6 6 6 6 6 6 6 5 4 4 3 2 2 1 1 1 1 1
12 11 11 11 11 12 12 12 12 12 12 12 12 12 12 12 11 11 11 10 9 9 8 7 7 8 8 7 7 7 7 6 6 6 6 6 7 7 6 7 9 9 9 9 9 8 8 8 8 8 8 8 8 8 7 7 7 7 7 7 7 6 6 6 5 5 6 6 6 6 6 6 6 6 6 6 5 4 3 3 2 1 1 1 1
12 11 11 11 12 12 12 12 12 12 12 12 12 12 12 11 11 12 12 11 11 11 11 9 8 8 8 8 7 7 7 7 7 7 7 7 7 7 6 8 9 9 9 9 9 8 8 9 8 8 8 8 7 8 7 7 7 7 6 6 6 6 6 6 5 5 5 6 6 6 6 6 6 6 6 6 6 5 4 4 3 2 2 1 1
12 11 11 11 12 12 12 12 12 12 12 12 12 12 12 12 12 12 12 12 11 11 12 11 10 8 8 8 8 8 8 8 8 7 7 7 8 7 7 8 9 9 9 9 9 8 9 9 8 8 8 8 7 7 7 7 7 7 6 6 6 6 5 5 5 5 5 6 6 6 6 6 6 6 6 6 6 6 5 4 4 3 3 2 2
12 12 11 11 12 12 12 12 12 11 11 11 12 12 12 12 12 12 12 12 11 11 11 12 11 10 9 9 8 8 8 8 8 8 8 8 8 8 8 9 10 9 9 9 9 8 8 8 8 8 8 7 7 7 7 7 7 6 6 6 6 5 5 5 5 5 5 5 6 5 6 6 6 6 6 6 6 6 6 5 5 4 3 3 2
12 11 11 11 11 12 12 12 11 11 11 11 12 12 12 12 12 12 12 12 11 11 11 11 11 11 11 11 10 9 9 9 9 9 9 9 9 9 9 10 10 9 9 9 9 8 8 8 8 8 7 7 7 7 7 7 6 6 6 6 6 5 5 5 5 5 5 5 5 5 5 6 6 6 6 6 6 6 6 6 5 5 4 4 3
12 11 11 11 11 11 12 12 12 11 11 11 12 12 12 12 12 12 12 12 12 11 11 11 12 12 11 11 10 9 9 10 10 10 10 10 9 9 10 10 9 9 9 9 9 8 8 8 8 8 7 7 7 6 6 6 6 6 6 6 5 5 5 5 5 4 4 5 5 5 5 6 6 6 6 6 6 6 6 6 6 6 5 4 4
12 11 10 10 11 11 11 12 12 12 12 12 12 12 12 12 12 12 12 12 12 12 11 11 12 12 11 10 10 9 9 9 10 10 10 10 10 10 10 10 9 9 9 9 9 8 8 8 7 7 7 7 6 6 6 6 6 6 6 5 5 5 5 5 5 4 4 4 5 5 5 5 6 6 6 6 6 6 6 6 6 6 6 6 5
12 11 10 10 10 11 11 12 12 12 12 12 12 12 12 12 12 12 12 12 12 11 11 11 12 11 11 10 10 9 9 9 9 10 10 10 10 10 10 9 9 9 9 9 9 8 8 7 7 7 7 6 6 6 6 6 6 6 5 5 5 5 5 5 4 4 4 4 4 5 5 5 5 6 6 6 6 6 6 6 6 6 6 6 6
12 12 11 11 10 11 11 12 12 12 12 12 12 12 12 12 12 12 12 11 11 11 11 11 12 11 10 10 10 9 9 9 9 10 10 10 10 10 10 10 10 9 9 9 8 8 8 7 7 7 7 6 6 6 6 6 6 6 6 5 5 4 4 4 4 4 4 4 4 5 5 5 5 5 5 6 6 6 6 6 6 6 6 6 6
12 12 12 11 11 11 11 12 12 12 12 12 12 12 12 11 12 12 12 12 11 11 11 11 11 11 11 10 9 9 9 9 10 10 10 10 10 10 10 10 10 9 9 9 8 8 8 7 7 7 6 6 6 6 6 6 6 6 6 5 5 5 4 4 4 4 4 3 4 4 5 5 5 5 5 5 6 6 6 6 6 6 6 6 6
12 12 12 12 12 11 11 12 12 12 12 12 12 12 11 11 11 12 12 12 12 11 11 11 11 11 11 11 10 10 10 10 11 11 11 10 10 10 10 10 9 9 9 9 8 8 8 7 7 7 6 6 6 6 6 6 6 6 6 6 5 5 4 4 3 4 3 3 3 4 4 5 5 5 5 5 5 6 6 6 6 6 6 6 6
12 12 12 12 12 12 12 12 12 12 12 12 12 12 12 12 12 12 12 12 12 12 12 12 11 11 11 11 11 11 11 11 11 11 11 10 10 10 10 10 10 9 9 9 8 8 7 7 7 6 6 6 6 6 6 6 6 7 6 6 5 5 4 4 3 4 3 3 3 4 4 4 5 5 4 4 5 5 5 6 6 6 7 7 7
12 12 12 12 12 12 12 12 12 12 12 12 12 12 12 12 12 12 12 12 12 11 12 12 12 12 12 11 11 11 11 11 11 11 11 10 10 10 10 10 9 9 9 8 8 8 8 7 7 6 6 6 6 6 6 6 6 7 7 6 6 5 4 4 4 3 3 3 3 4 4 4 4 4 4 4 4 5 5 5 6 6 7 7 7
12 12 12 12 12 12 12 12 12 12 12 12 12 12 12 12 12 12 12 12 12 11 11 11 11 12 12 12 12 12 11 11 11 11 11 11 10 10 10 10 9 9 8 8 8 8 8 7 7 7 6 6 6 6 6 6 6 6 7 6 6 5 4 4 4 3 3 3 3 4 4 4 3 4 4 4 4 4 5 5 5 6 6 7 7
12 12 12 12 12 12 12 12 12 12 12 12 12 12 12 12 12 12 12 12 12 12 12 12 12 12 12 12 12 12 12 11 11 11 11 11 11 10 10 10 9 9 8 8 8 8 7 7 7 7 6 6 6 6 6 6 6 6 6 6 6 5 5 4 4 4 4 3 3 3 4 4 3 3 4 4 4 4 4 4 4 5 6 7 7
12 12 12 12 12 12 12 12 12 12 12 12 12 12 12 12 12 12 12 12 12 12 12 12 12 12 12 12 12 12 12 12 11 11 11 11 11 11 10 10 10 9 9 8 8 8 7 7 7 7 7 6 6 6 6 6 6 6 6 6 6 5 5 4 4 4 4 3 3 3 4 4 3 3 4 4 4 4 4 4 4 5 6 7 7
12 12 12 12 12 12 12 12 12 12 13 13 12 12 12 12 12 12 12 12 12 12 12 12 12 12 12 12 12 12 12 12 11 12 12 12 11 11 11 11 10 9 9 8 8 8 8 7 7 7 7 7 6 6 6 6 6 6 6 6 6 5 5 4 4 4 4 4 3 3 3 3 3 3 3 4 4 4 4 4 4 5 6 6 7
Height
835 836 837 838 839 839 840 840 841 841 842 843 844 844 846 846 847 848 848 848 848 848 849 849 849 849 848 847 847 846 845 844 843 842 841 840 839 838 837 836 835 834 833 831 830 829 828 826 825 824 823 822 820 819 817 816 814 812 811 808 806 804 802 799 794 787 782 780 777 772 769 766 762 760 758 755 753 752 751 750 749 748 747 747 747
836 837 838 839 840 840 841 842 842 843 843 844 845 846 847 848 848 849 849 849 849 849 850 850 850 849 849 849 848 847 846 845 844 843 842 841 840 839 838 837 836 835 833 832 831 830 829 827 826 825 824 823 822 820 818 817 815 813 812 809 807 805 803 800 796 789 783 779 777 773 769 767 762 759 757 754 751 750 748 746 745 746 745 745 744
837 838 839 840 841 842 843 843 844 844 845 846 847 847 848 849 849 850 850 851 851 851 851 851 851 850 850 850 849 848 848 846 845 844 843 842 841 840 839 838 837 836 835 833 832 831 830 828 827 826 825 824 822 821 820 818 817 814 812 810 808 805 804 801 797 792 786 780 777 774 769 766 763 758 756 754 751 748 745 743 742 742 743 743 742
838 839 840 841 842 843 844 844 845 846 846 847 848 849 849 850 851 851 851 852 852 852 852 852 852 852 851 851 850 850 849 847 846 845 844 843 842 841 840 839 838 837 836 835 833 832 831 829 828 827 826 825 824 822 821 819 817 815 813 811 809 806 803 801 798 794 789 782 777 775 771 766 762 758 755 752 749 746 743 740 738 737 737 739 739
840 840 841 843 843 844 845 846 846 847 848 849 849 850 850 851 852 852 852 853 853 853 853 853 853 853 852 852 852 851 849 848 847 845 845 844 843 842 841 840 839 838 837 836 834 833 832 831 830 829 828 827 825 823 822 820 818 816 814 811 808 806 803 800 798 795 790 784 778 774 771 767 761 757 755 751 747 744 741 738 735 732 731 732 733
840 841 842 843 844 845 846 847 848 848 849 850 850 851 851 852 852 853 853 854 854 854 855 855 854 854 854 853 853 852 850 849 847 845 845 844 843 843 842 841 840 839 838 836 835 834 833 832 831 830 829 828 826 825 823 821 819 817 814 812 809 806 802 799 796 793 789 785 779 773 770 766 761 756 754 751 747 742 739 736 733 730 727 726 727
841 842 843 844 845 846 847 848 849 850 851 851 852 852 853 853 853 854 855 855 855 856 856 856 856 855 855 854 854 853 851 849 847 846 845 844 844 843 842 841 840 839 838 837 836 835 834 833 832 831 830 829 827 826 824 821 820 817 815 812 809 806 802 798 795 791 787 783 779 774 769 765 761 756 753 751 747 742 739 734 730 727 725 723 722
841 842 843 845 846 847 848 849 850 851 852 852 853 853 854 854 854 855 856 856 857 857 857 857 857 856 856 855 855 854 852 850 848 846 845 844 844 843 842 842 841 840 839 838 837 836 834 833 833 832 831 830 828 826 824 822 820 817 814 812 809 805 802 798 794 791 787 782 778 774 769 764 761 757 753 750 746 742 739 735 729 726 724 721 719
841 843 844 846 847 848 849 850 851 852 853 853 854 854 855 855 856 856 857 858 858 858 858 858 858 857 857 857 856 855 853 851 849 847 846 844 844 844 843 842 841 840 839 838 837 836 835 834 833 832 831 830 828 826 824 822 820 817 814 810 808 804 801 798 794 790 786 782 777 773 769 764 761 757 753 750 747 743 741 738 733 728 725 721 717
841 843 845 846 848 849 850 851 852 853 854 854 855 856 856 857 857 858 858 859 859 859 859 859 859 858 858 858 857 856 854 853 851 849 847 845 844 844 843 843 842 841 840 839 837 836 835 834 833 832 831 829 828 826 823 820 818 815 813 809 807 803 799 796 793 789 785 781 777 773 769 764 761 758 754 751 748 745 742 739 734 729 725 719 714
842 844 846 847 849 850 851 852 853 854 854 855 856 857 858 859 859 859 859 860 860 860 860 860 860 860 859 859 858 857 856 854 851 850 848 846 845 844 843 843 842 841 840 839 838 836 835 835 833 832 830 828 826 824 821 818 814 811 809 807 804 801 798 795 791 788 784 780 776 773 769 764 760 758 754 750 748 745 742 738 734 731 726 719 713
843 844 846 848 849 850 852 852 853 854 855 856 857 858 860 861 861 861 861 861 861 861 861 861 861 861 860 860 860 858 857 854 852 850 848 847 846 844 844 844 843 842 841 839 838 837 836 835 833 831 830 828 826 823 819 815 811 808 805 803 801 799 797 794 791 787 783 779 775 771 768 763 759 756 753 749 746 743 740 738 735 732 728 722 715
843 845 847 849 850 851 852 853 854 856 857 858 859 860 862 863 863 863 863 863 862 862 862 862 862 862 861 861 861 859 858 855 853 851 849 848 847 845 844 844 843 842 841 840 838 837 836 835 833 831 830 828 825 822 818 814 809 806 803 801 799 796 794 792 789 786 783 779 774 769 766 762 757 753 751 748 745 742 738 736 733 730 726 721 716
844 846 848 849 851 852 853 854 856 857 858 859 860 861 863 864 864 864 864 864 863 863 863 863 863 862 862 862 861 860 859 857 854 852 850 848 847 845 845 845 843 842 841 840 838 837 837 836 834 832 830 828 826 822 818 813 809 805 802 800 797 794 791 789 786 784 781 778 774 768 764 761 756 752 749 746 743 740 736 733 730 727 723 718 715
845 847 849 850 851 853 854 855 857 858 859 861 861 863 864 865 865 865 865 865 864 864 864 863 863 863 863 862 862 861 860 857 855 852 850 849 847 845 846 845 844 843 841 840 838 837 837 836 834 832 830 828 826 822 818 813 809 806 803 800 796 793 790 787 784 782 779 776 772 767 762 758 753 749 746 742 739 736 733 730 726 724 720 715 711
846 847 849 850 852 853 855 856 858 859 860 862 863 864 865 865 866 865 865 865 865 864 864 864 864 864 863 863 863 862 860 858 856 853 852 850 847 846 846 845 844 843 841 840 839 837 837 836 834 832 831 829 825 821 818 814 810 807 803 799 796 792 789 786 783 779 776 772 768 764 759 754 749 745 741 738 733 731 728 724 721 720 717 712 706
846 848 849 851 852 854 856 857 859 860 861 863 864 865 866 866 866 866 865 865 865 865 865 865 865 864 864 863 863 862 861 859 857 855 853 851 848 847 847 846 844 843 842 840 839 837 836 835 834 832 831 828 825 821 817 814 810 807 804 800 796 792 788 784 780 776 772 768 764 760 755 750 745 739 736 732 728 726 722 717 715 715 712 706 701
846 848 849 851 853 855 857 858 859 861 862 864 865 866 866 866 866 866 866 865 865 865 865 865 865 865 864 864 863 863 862 860 858 857 854 852 850 849 849 847 845 844 842 840 839 837 836 834 833 832 831 828 824 820 817 814 811 808 804 800 796 792 787 783 777 773 769 765 761 757 751 746 741 735 731 728 724 722 717 712 709 708 704 699 695
846 848 850 852 854 856 858 859 860 862 863 864 865 866 866 866 866 865 865 865 865 865 865 865 865 865 865 864 864 863 862 861 859 858 856 854 852 851 850 848 846 844 842 840 839 838 837 835 832 832 830 827 823 820 817 815 811 808 806 802 798 793 788 783 778 773 768 762 758 753 748 743 738 733 729 724 720 717 712 707 705 701 696 693 691
847 849 851 853 855 857 858 860 862 863 864 865 865 866 866 866 866 866 865 865 865 865 865 865 865 865 865 865 864 864 863 862 860 859 857 856 854 852 852 850 848 845 843 841 839 837 837 835 833 832 830 826 823 820 818 815 811 809 806 802 798 794 788 783 779 774 769 762 757 752 746 741 736 731 726 721 716 712 707 702 699 695 691 688 686
847 850 852 853 856 857 859 861 862 863 865 865 865 866 866 866 866 866 865 865 865 865 864 864 865 865 865 865 864 864 864 863 862 860 858 857 855 854 853 851 849 847 844 841 840 838 836 835 834 833 830 826 823 820 818 815 812 809 806 802 799 794 789 784 779 774 769 763 756 750 744 739 734 728 723 718 712 707 701 697 693 689 686 684 681
848 850 852 854 856 858 860 862 863 864 865 865 866 866 866 866 866 865 865 865 864 865 864 864 864 865 865 865 865 864 863 863 862 861 859 858 856 855 854 852 850 848 845 843 841 839 837 836 835 832 830 826 823 819 817 815 812 810 806 802 798 793 789 784 779 773 768 763 757 750 744 738 732 726 721 715 709 704 698 692 688 684 681 678 677
848 850 852 855 857 859 861 862 863 864 865 865 866 866 866 866 865 865 864 864 864 864 864 864 864 865 865 865 865 864 864 863 862 861 860 858 857 855 854 853 851 849 846 844 842 840 838 837 835 832 829 826 823 819 817 815 812 810 806 801 797 793 789 784 779 773 769 763 757 750 744 739 733 726 720 714 708 702 697 691 686 682 678 675 674
848 850 853 855 857 859 861 862 863 864 864 865 865 865 865 865 865 864 864 864 864 864 864 864 864 864 865 865 865 865 865 864 863 862 860 859 857 856 854 853 851 849 847 845 843 841 839 837 835 831 828 826 823 820 817 815 812 809 805 801 797 793 789 784 779 774 770 764 758 752 747 742 736 729 722 716 710 704 698 692 686 682 679 676 674
849 851 853 855 857 859 860 862 863 863 864 864 865 865 865 864 864 864 864 864 864 864 864 864 864 864 865 865 865 865 865 864 863 862 861 859 858 856 855 853 851 848 847 845 844 842 839 836 834 831 828 826 823 820 817 815 812 808 805 801 798 794 790 785 780 775 771 766 760 755 749 743 738 732 726 719 712 705 698 692 687 683 680 678 675
849 851 853 855 857 858 860 861 862 863 863 864 864 864 864 864 864 864 864 864 864 864 864 865 865 865 865 864 865 865 865 864 864 863 861 860 858 856 855 853 851 849 847 845 844 841 838 835 833 831 828 825 823 820 817 814 812 808 805 801 798 794 791 787 782 778 773 768 763 757 751 746 741 735 728 721 715 708 701 696 691 686 683 680 678
849 851 853 855 856 858 859 860 861 862 862 862 863 863 863 864 864 864 864 864 864 865 865 865 865 865 865 865 865 865 865 865 864 863 862 860 858 857 855 853 851 849 847 845 843 840 837 835 833 831 828 826 824 821 817 814 812 808 805 802 799 796 792 789 785 781 776 771 766 760 755 749 743 737 731 724 718 712 707 702 697 694 690 686 683
848 850 852 854 855 857 858 859 860 860 861 861 862 863 863 864 865 865 865 865 865 865 866 866 866 866 866 866 865 865 865 865 865 864 862 861 859 857 856 854 852 850 848 846 843 840 837 835 833 831 828 826 824 820 817 815 812 809 806 803 800 797 793 790 786 783 778 773 768 762 757 751 746 740 735 729 723 717 712 708 704 701 697 691 687
848 850 852 853 854 856 858 858 858 859 860 861 862 863 864 864 865 866 867 867 866 867 867 867 867 867 866 867 867 866 866 866 865 864 862 861 859 858 856 854 852 850 848 846 843 840 838 836 834 831 829 827 825 822 818 815 813 810 807 804 801 797 793 790 787 783 779 774 769 764 759 754 749 744 738 733 728 723 719 714 710 706 702 697 693
848 849 851 852 854 855 856 857 857 858 860 861 863 864 865 866 866 867 867 867 867 868 868 867 867 867 867 867 867 867 867 866 865 863 862 861 859 858 856 854 852 850 848 846 843 841 839 837 834 832 830 828 826 823 820 816 814 811 808 804 802 799 795 792 789 785 781 777 772 768 763 758 753 747 742 738 734 730 725 721 717 713 709 704 701
847 848 849 851 853 854 855 855 856 857 859 860 862 864 865 866 867 867 868 868 868 868 868 868 868 867 867 867 867 867 866 865 864 863 862 860 859 857 856 854 852 850 848 845 843 841 840 837 835 833 831 829 827 825 822 818 815 813 809 806 803 800 797 794 791 787 783 779 775 770 766 761 756 752 748 743 739 735 731 726 723 719 715 712 708
846 847 848 850 852 852 853 854 855 856 857 859 860 862 863 865 866 867 867 867 867 868 868 868 868 868 867 867 867 866 866 865 864 862 861 860 858 857 855 853 851 850 848 845 844 842 840 838 836 834 832 830 828 826 824 820 817 815 811 807 805 802 799 796 794 790 785 781 777 772 768 764 760 756 752 748 743 739 735 731 728 725 721 717 714
845 846 847 849 851 851 852 853 854 855 857 858 859 859 860 861 863 865 866 867 867 867 867 867 867 867 867 866 866 866 865 864 863 862 861 859 858 856 854 852 851 849 847 846 844 843 841 839 837 835 833 831 829 827 825 822 819 817 814 810 807 805 802 799 796 792 788 784 780 776 771 767 763 759 755 751 747 744 741 737 734 731 727 724 721
844 845 846 848 850 850 851 852 854 854 856 857 857 858 858 859 860 862 863 865 865 866 866 866 866 866 866 865 865 865 864 863 862 861 860 859 857 855 853 851 849 848 847 846 845 843 841 840 838 836 834 832 830 828 826 823 821 819 816 813 810 808 805 802 799 795 791 787 784 779 775 771 767 762 759 756 752 750 747 744 741 737 733 731 728
843 844 846 848 849 849 850 851 853 853 855 856 857 857 858 859 860 860 861 862 863 863 863 864 864 864 864 864 864 864 863 862 862 861 860 858 857 855 853 851 849 848 847 847 846 844 842 841 839 837 836 834 832 829 827 825 823 820 818 815 813 810 807 804 801 798 794 791 787 783 779 776 772 768 764 761 758 755 752 749 747 744 741 739 736
841 844 846 847 848 848 849 850 852 853 854 855 856 856 857 858 859 859 859 860 860 860 860 861 861 862 862 863 863 862 862 861 860 860 859 858 856 855 853 851 850 849 848 847 846 845 843 841 840 839 837 835 833 831 829 827 824 822 820 818 815 812 810 807 804 800 796 793 791 787 783 779 776 773 769 766 763 760 758 755 753 750 748 746 744
840 842 845 846 846 847 849 850 851 852 853 854 855 856 857 858 858 858 858 859 859 859 859 859 860 860 861 861 861 861 861 860 859 858 858 857 856 854 853 852 851 850 848 847 847 845 844 842 841 840 838 836 834 832 830 828 826 824 822 820 817 815 813 810 807 803 799 795 793 789 786 783 780 777 774 771 768 765 763 760 758 756 754 752 750
839 841 843 845 845 846 848 849 850 852 853 854 855 855 855 856 857 857 857 857 858 859 859 858 858 859 858 858 859 859 858 858 857 857 856 856 855 854 853 852 851 850 849 848 847 846 844 843 842 840 839 837 836 834 832 830 828 826 823 821 819 817 814 812 809 806 802 799 795 792 789 786 783 780 778 775 772 770 767 765 762 761 759 757 755
839 840 842 844 845 846 847 848 850 851 853 854 854 854 854 855 856 856 856 856 857 858 858 857 857 857 856 857 858 858 857 857 856 856 855 855 854 854 852 851 851 850 849 848 847 846 845 844 842 841 840 838 837 835 833 831 829 827 825 823 820 818 816 813 811 808 805 802 799 796 793 789 786 784 781 779 776 774 772 770 768 766 764 763 761
838 840 842 844 845 846 846 847 849 850 851 852 852 852 853 854 855 855 855 855 855 856 856 856 855 855 855 856 857 858 858 857 856 855 854 854 854 853 852 851 850 850 849 848 847 846 846 844 843 842 841 839 838 836 834 833 831 829 827 825 822 820 818 815 813 811 808 805 803 800 797 794 791 788 785 782 780 778 776 774 772 770 769 768 766
837 839 841 843 844 845 846 846 847 848 849 851 851 851 851 852 853 853 853 853 854 854 854 854 854 854 854 855 856 857 858 857 856 854 853 853 853 852 851 851 850 849 849 848 847 846 846 845 844 842 841 840 839 837 836 834 832 830 828 826 824 822 819 817 815 813 810 808 806 803 801 798 795 792 789 787 784 782 780 778 776 775 773 772 771
835 837 840 842 844 844 845 846 846 847 848 849 850 850 850 851 851 852 852 852 853 853 853 853 853 853 852 853 855 856 856 856 855 854 853 852 851 851 850 850 849 848 848 847 847 846 845 845 844 843 841 840 839 838 836 835 833 831 830 828 826 824 821 819 817 814 812 810 808 805 803 801 799 796 794 792 789 787 784 782 781 779 777 776 775
834 836 838 841 842 843 844 844 845 846 847 848 848 849 849 850 850 851 851 851 852 852 852 852 852 852 851 852 853 854 854 854 853 852 851 850 850 850 849 849 848 847 847 847 846 846 845 844 843 843 841 840 839 838 836 835 834 832 831 829 827 825 823 821 818 816 814 811 809 807 805 803 801 799 797 796 793 791 789 787 786 784 783 781 780
833 834 836 838 840 842 843 843 844 844 845 846 847 848 848 849 849 849 849 849 850 851 851 851 851 851 850 851 851 852 852 851 851 850 849 849 849 848 848 847 847 847 846 846 845 845 844 844 843 842 841 840 839 838 836 835 834 832 831 830 828 827 825 822 820 818 816 813 811 809 807 805 803 801 799 798 796 794 792 790 789 788 787 785 784
832 833 834 836 838 839 841 841 842 843 844 845 846 846 847 848 848 848 848 848 848 848 849 849 849 849 849 849 849 849 849 849 848 848 847 847 847 847 846 846 846 845 845 845 844 844 843 843 842 841 840 839 838 837 836 835 834 832 831 830 829 827 826 824 822 820 818 815 813 811 809 807 805 803 801 800 798 796 795 793 791 789 788 788 787
830 831 833 834 835 837 838 839 840 841 842 843 843 844 845 845 846 846 846 846 846 847 847 847 847 847 847 847 847 847 847 846 846 846 846 845 845 845 844 844 844 844 843 843 843 842 842 841 841 840 839 839 838 837 836 834 833 832 831 830 829 828 826 825 823 821 819 817 815 813 811 809 807 806 804 802 800 799 797 795 794 792 790 789 789
829 830 831 832 833 835 836 837 838 839 840 840 841 842 842 842 843 843 844 844 845 845 845 845 845 845 845 845 845 844 844 844 844 844 844 843 843 843 843 842 842 842 842 842 841 841 840 840 839 839 838 837 836 836 835 834 833 832 831 830 828 827 826 825 823 822 820 818 816 815 813 811 809 807 806 804 802 801 799 798 796 794 793 792 790
827 828 830 831 832 833 834 835 836 837 838 838 839 840 840 840 840 841 841 842 842 843 843 843 843 843 842 842 842 842 842 842 842 842 842 841 841 841 841 840 840 840 840 840 840 839 839 838 838 837 836 836 835 834 834 833 832 831 830 829 827 826 825 825 823 822 821 819 817 816 815 813 811 809 807 806 804 803 801 800 798 796 795 794 793
826 827 828 829 830 831 832 833 834 835 835 836 837 837 838 839 839 839 839 839 840 840 840 841 840 840 840 840 840 839 840 839 839 840 840 839 839 839 839 838 838 838 838 838 838 837 836 836 836 835 834 834 833 833 832 831 830 830 829 828 826 825 825 824 823 822 821 819 818 817 816 814 812 811 809 807 806 804 803 801 800 798 796 795 794
825 825 826 827 828 829 830 831 831 832 833 834 834 835 835 836 837 837 837 837 837 837 838 838 837 837 837 837 837 837 837 837 837 837 836 836 836 836 836 836 836 836 836 835 835 835 834 834 833 833 832 832 831 830 830 829 829 828 827 826 825 824 824 823 822 821 820 819 818 817 816 815 813 812 810 809 807 805 804 803 801 800 798 796 795
823 824 825 826 827 828 828 829 830 830 830 831 831 832 833 833 833 834 834 835 835 835 835 835 835 835 834 834 834 834 834 834 834 834 833 833 833 833 833 833 834 834 834 833 833 832 832 831 830 830 830 829 828 828 827 827 826 826 825 824 823 823 822 822 821 820 819 818 817 816 816 815 813 812 811 809 808 807 805 804 802 801 799 797 796
Wind_Speed
12 13 13 13 13 13 13 13 13 13 13 12 12 11 11 10 10 9 9 9 9 9 9 9 10 10 11 12 12 12 13 13 13 12 12 13 12 12 13 13 13 13 13 13 14 14 14 15 15 16 16 16 17 17 17 17 18 18 18 18 19 18 19 20 16 16 23 25 25 27 27 27 28 27 26 26 24 23 24 26 27 28 28 28 29
12 13 13 13 13 13 13 13 13 13 13 13 12 11 11 10 9 9 9 9 9 9 9 9 10 11 11 12 13 13 13 13 13 13 13 13 12 12 13 13 13 13 13 14 15 15 15 15 16 16 17 17 17 17 17 18 19 19 19 18 19 19 19 21 21 18 22 26 26 27 27 26 26 27 26 27 27 25 26 28 28 28 29 29 30
13 13 14 14 13 13 13 13 13 13 13 13 12 11 11 10 9 9 9 9 9 10 10 10 10 11 12 13 13 14 14 14 14 13 13 13 12 12 13 13 13 13 14 15 15 15 15 16 16 17 17 18 18 18 18 19 20 20 20 19 20 21 20 21 22 21 23 26 27 27 27 26 26 28 28 28 28 27 27 28 29 31 30 26 27
13 14 15 14 14 13 13 13 13 13 12 12 12 11 11 10 10 9 9 9 9 9 10 10 10 11 12 13 13 14 15 15 15 14 14 13 12 12 12 13 13 13 14 14 15 15 16 16 17 17 18 18 18 19 19 20 21 21 21 21 20 21 22 21 22 23 24 26 27 27 27 28 28 28 28 28 28 28 27 27 29 32 33 28 26
14 14 14 14 14 14 13 13 13 13 12 12 11 11 10 10 10 9 9 9 9 9 9 9 10 12 12 13 14 15 16 16 16 15 15 13 12 11 12 13 13 13 14 14 15 16 16 17 17 17 17 18 18 19 20 21 22 21 21 22 22 22 23 23 23 24 24 26 28 28 28 28 29 28 27 27 27 27 27 26 26 28 31 32 30
14 14 14 14 14 14 14 13 12 12 12 11 11 10 10 10 9 9 9 9 10 10 9 10 10 12 13 13 14 15 16 17 18 17 15 13 12 11 12 12 12 12 13 14 15 16 16 16 16 17 17 18 19 20 21 22 21 21 22 23 24 24 25 25 25 25 25 25 27 28 28 27 27 28 26 26 27 27 27 27 26 25 27 29 31
14 14 14 14 14 14 13 12 12 11 11 10 10 10 10 10 10 10 9 9 9 9 9 10 10 11 13 14 15 16 17 20 20 19 15 13 12 12 12 12 12 12 13 14 15 15 16 16 16 16 18 18 19 21 22 22 21 22 23 24 25 26 26 26 26 25 25 25 25 26 27 26 26 27 27 28 28 26 26 26 25 24 24 24 26
14 14 14 14 14 13 12 12 12 11 11 11 11 10 10 10 10 10 9 9 9 9 9 9 10 11 12 13 15 16 18 22 22 20 17 13 12 11 12 12 12 13 13 14 14 15 16 16 16 17 18 19 21 22 22 22 22 23 25 26 26 26 26 25 25 25 24 24 24 24 26 26 25 25 26 26 25 24 23 24 25 25 24 23 22
15 14 14 14 13 13 12 12 12 11 11 11 11 11 10 10 10 10 9 9 9 8 9 9 10 11 12 13 14 16 20 23 22 18 17 14 11 10 11 12 12 13 13 14 14 15 17 17 17 18 18 20 23 23 22 23 24 26 27 27 26 25 24 24 24 24 24 24 24 24 25 25 25 25 25 24 23 24 26 28 28 28 29 28 25
15 15 15 14 14 13 13 12 12 12 11 11 11 10 10 10 10 10 10 9 9 9 8 9 10 11 13 14 14 16 21 25 20 15 14 13 11 10 10 12 12 13 14 14 15 16 17 17 18 18 18 22 24 23 24 27 29 29 28 27 26 26 26 25 23 23 24 24 24 24 24 24 25 26 26 26 26 26 27 27 27 27 29 28 24
15 15 15 15 14 14 13 13 12 12 12 11 11 10 10 10 10 10 10 9 8 8 9 9 10 11 12 14 14 16 21 24 20 15 13 12 11 10 10 11 12 12 14 15 15 17 18 18 19 19 20 24 25 24 27 31 32 31 29 27 26 26 27 26 24 24 25 24 25 25 24 26 28 28 28 28 27 26 26 26 26 26 26 22 19
16 16 15 15 14 14 13 13 13 12 12 12 11 11 10 9 9 9 9 9 8 8 9 9 9 9 10 13 15 17 21 23 20 16 13 13 13 12 11 11 11 12 14 15 16 17 18 20 20 20 23 25 25 26 29 31 30 30 29 27 25 24 24 25 25 26 26 25 26 26 26 27 29 30 29 28 28 27 27 27 26 25 25 24 22
17 16 15 15 14 14 13 14 13 13 12 12 11 11 9 8 8 8 9 9 9 9 9 9 8 8 9 11 14 18 22 23 21 16 12 12 13 12 11 10 10 12 14 15 16 17 18 20 21 22 25 25 25 28 30 30 29 28 27 26 26 24 25 25 25 25 25 25 26 27 28 29 30 31 31 31 31 31 30 29 28 27 27 27 27
17 17 16 16 15 15 15 14 13 13 12 11 11 10 9 7 7 7 7 8 8 9 9 9 8 8 8 9 12 17 22 23 22 18 13 11 12 12 10 10 10 12 14 14 16 17 17 20 22 24 25 24 27 32 32 29 28 27 26 26 26 26 26 25 24 23 23 24 25 28 30 31 32 33 34 35 34 32 30 29 29 29 30 31 32
18 17 17 16 15 15 15 14 13 13 12 11 11 10 8 8 7 7 7 7 8 8 9 9 9 8 8 9 10 15 21 22 22 21 15 11 13 12 10 10 11 11 13 14 15 16 17 19 21 23 23 23 27 34 35 30 26 25 25 26 27 27 26 25 25 25 25 25 27 30 32 34 35 36 37 37 36 35 33 33 33 33 34 35 35
18 17 16 16 15 15 15 14 14 13 12 12 11 9 8 8 7 7 7 8 8 8 8 9 9 9 8 9 9 13 19 22 23 23 19 14 14 14 11 10 11 11 12 14 14 15 16 16 18 20 20 22 28 34 36 32 26 24 25 26 27 28 26 27 27 26 27 29 31 33 35 36 37 37 36 37 38 39 38 37 35 32 31 30 29
17 17 16 16 16 15 15 14 14 13 12 12 11 9 8 8 8 7 8 8 8 8 8 9 9 10 10 9 9 11 17 22 24 24 22 17 15 15 13 10 11 11 12 13 15 15 14 14 18 21 21 24 30 33 34 33 27 23 25 27 28 28 28 29 28 27 29 32 33 34 35 36 35 33 32 32 34 35 35 34 31 28 25 20 18
18 17 17 16 16 15 15 14 14 13 12 11 10 9 8 8 8 8 8 8 8 8 8 8 9 9 10 11 10 9 12 20 24 25 25 22 18 15 14 12 11 12 12 13 14 15 14 16 22 26 26 27 30 31 31 32 28 24 26 28 28 29 31 31 29 29 31 32 32 33 34 34 34 32 30 29 29 30 30 31 29 26 25 20 17
18 18 17 17 16 15 15 14 14 13 12 10 9 9 8 8 7 8 8 8 8 9 9 9 8 8 8 9 10 9 8 14 22 24 24 25 22 16 15 14 12 13 14 13 13 14 15 17 22 29 30 28 29 29 28 29 28 27 28 29 27 29 33 32 30 32 36 35 35 36 35 34 34 32 30 29 28 28 27 27 27 25 25 23 21
18 18 18 17 16 15 14 14 13 12 11 10 9 8 8 8 8 8 8 8 8 8 8 9 9 8 7 6 7 9 9 11 18 22 22 24 24 19 15 14 15 16 14 14 14 14 16 17 19 27 31 29 29 29 26 27 28 26 28 30 28 31 35 33 30 34 39 38 37 37 36 36 35 33 30 30 29 29 27 25 23 23 23 23 22
19 18 17 17 16 15 14 13 12 11 10 9 8 8 8 8 8 8 9 9 8 8 8 8 8 8 7 6 5 6 9 11 15 19 20 20 22 21 17 15 17 18 15 14 14 14 16 17 19 25 29 30 32 29 24 25 27 25 30 34 32 33 34 31 31 35 37 37 37 36 36 37 37 34 32 32 31 31 31 27 22 20 20 22 23
19 18 18 17 16 15 14 13 11 10 9 9 8 8 7 7 7 7 8 9 9 8 8 7 7 7 6 7 7 5 7 10 13 17 18 17 19 22 19 17 18 17 15 14 14 14 17 18 20 26 27 28 32 29 22 24 26 27 34 37 33 33 33 30 32 35 35 36 36 36 36 36 37 36 34 34 35 34 34 30 25 22 17 15 22
19 19 18 17 16 15 14 12 10 9 8 8 8 8 7 7 6 6 7 7 8 8 8 7 7 7 6 7 8 7 6 8 12 16 18 17 17 20 20 19 20 18 15 15 14 14 17 18 20 26 26 24 29 27 21 23 25 28 35 36 32 33 32 31 33 36 36 36 36 35 36 35 35 36 36 36 37 36 34 32 30 27 21 13 9
19 19 18 17 16 15 13 11 10 9 9 9 8 7 7 6 6 6 6 6 7 7 7 7 6 7 7 6 8 9 8 8 11 15 17 17 16 19 19 20 21 19 15 14 13 14 18 19 21 26 24 22 26 25 21 22 24 26 32 35 32 31 30 30 33 35 34 36 36 35 35 35 35 37 37 36 37 36 34 33 32 29 24 19 17
19 18 18 17 16 15 13 12 10 9 9 8 8 7 6 5 6 6 6 6 6 6 6 7 6 6 6 6 7 8 9 9 10 13 16 16 16 17 18 18 21 19 15 13 14 17 20 20 20 23 22 19 24 24 21 23 24 24 27 32 31 31 31 31 33 33 32 34 35 34 35 36 37 38 38 36 36 38 38 36 35 33 29 23 21
19 19 18 17 16 15 14 12 10 9 8 8 7 6 6 5 5 5 5 6 6 6 6 6 6 6 7 6 7 8 9 10 11 12 14 15 15 16 17 17 19 19 16 15 16 18 21 20 19 22 21 19 22 24 22 23 25 24 25 28 30 31 32 32 32 32 32 34 35 35 36 37 37 39 39 37 36 38 38 37 37 36 33 28 24
19 18 17 16 15 14 13 12 11 10 9 8 7 6 5 5 5 5 5 4 4 5 5 5 6 7 7 6 7 7 8 10 11 12 13 15 15 16 16 17 18 18 16 17 19 20 21 20 18 20 20 19 20 23 23 24 26 26 26 28 28 30 32 31 29 29 32 35 36 36 38 37 37 39 40 38 38 38 38 37 36 35 33 30 24
19 18 17 16 15 14 13 13 11 10 9 8 7 6 6 6 6 6 6 5 5 5 5 5 5 6 7 7 7 7 8 9 11 11 13 14 15 16 16 16 18 18 17 19 22 22 20 18 17 19 20 19 20 22 23 24 25 26 27 28 28 29 31 30 28 30 32 34 35 37 38 38 36 37 38 38 39 40 40 38 35 33 33 31 25
18 18 17 15 14 14 13 12 11 10 9 8 7 7 7 7 8 8 7 6 5 5 6 6 5 5 6 7 7 7 8 8 10 11 12 14 14 15 15 16 17 18 18 20 22 21 18 16 17 18 19 19 20 22 23 25 25 25 27 28 28 30 31 30 30 31 32 32 33 35 37 37 36 36 36 36 38 40 40 38 36 36 36 34 29
18 17 16 15 14 14 13 11 11 11 10 10 9 9 8 7 8 8 6 5 6 5 6 6 5 4 5 5 5 6 7 8 9 11 12 13 13 12 12 14 17 18 18 19 20 19 16 16 17 17 18 18 19 20 23 24 24 24 26 27 28 30 30 29 30 31 31 31 32 33 34 35 35 36 35 33 34 37 38 36 35 36 37 35 32
17 16 15 15 15 14 12 11 11 11 11 11 12 11 10 9 8 7 6 6 5 5 5 5 5 4 4 4 4 6 7 8 10 11 12 12 11 11 11 13 15 16 18 19 19 16 15 16 16 17 18 18 18 19 22 23 23 24 25 27 28 29 29 29 31 31 30 31 32 32 32 33 34 35 35 32 31 33 35 35 34 34 35 34 33
16 15 15 15 14 13 12 12 11 10 11 10 10 11 11 11 9 8 7 7 6 5 5 4 3 3 3 3 2 3 6 8 9 10 12 12 10 10 12 13 13 14 17 17 16 14 15 16 16 16 18 18 18 19 20 21 22 23 24 25 26 28 28 29 31 31 30 31 32 31 31 32 32 34 36 35 32 31 33 34 33 32 33 34 35
16 15 15 16 14 12 12 12 10 10 10 9 9 9 9 10 11 11 10 8 6 5 5 4 4 3 3 3 3 3 5 8 9 10 11 12 11 11 13 14 12 11 13 13 13 13 14 15 16 16 17 18 18 19 19 20 21 21 23 24 24 25 27 28 29 30 30 30 31 31 31 32 32 32 34 36 35 32 30 32 32 30 30 32 33
16 14 15 16 14 12 12 12 10 10 10 9 7 6 5 5 7 9 11 12 10 9 7 5 4 4 4 4 5 5 6 7 8 9 11 13 12 12 15 15 13 11 9 10 11 13 14 14 15 16 17 17 18 18 19 20 20 20 22 23 23 24 26 26 27 29 29 29 30 31 30 31 31 30 31 33 35 33 30 30 31 30 29 29 29
15 14 15 16 14 11 11 12 10 10 9 8 7 6 6 5 4 4 6 8 9 10 11 10 7 2 2 4 5 6 6 6 7 8 10 12 13 15 16 15 13 12 10 10 12 13 13 14 15 15 16 17 18 18 18 19 19 19 21 22 22 23 25 26 27 28 28 27 29 30 29 29 30 30 29 29 30 31 30 30 30 30 29 27 27
14 15 16 15 13 11 11 11 10 9 9 8 7 6 6 6 5 4 3 4 4 4 6 10 10 6 3 2 2 4 6 7 6 7 8 10 12 15 16 13 11 12 11 11 12 13 12 13 14 15 16 16 17 18 18 19 19 19 20 21 21 22 24 25 26 28 27 26 28 29 29 29 29 29 29 29 28 28 29 30 29 30 30 28 26
14 15 16 15 12 12 12 11 9 9 8 8 7 6 6 5 5 5 5 5 3 2 3 4 7 8 9 8 4 3 6 8 8 7 8 9 10 12 14 11 9 11 11 11 12 12 12 12 13 14 15 16 17 17 18 18 18 19 19 20 20 21 23 23 24 27 27 26 27 29 28 28 28 28 27 27 27 26 27 29 29 28 30 30 27
14 15 17 15 12 12 12 11 9 9 8 7 6 6 6 6 5 5 5 4 3 3 5 4 4 6 8 9 7 4 7 9 10 9 9 9 9 10 10 8 8 9 10 10 11 12 12 12 12 13 14 15 16 16 17 18 18 18 19 20 20 21 22 22 23 25 26 25 26 28 28 27 28 28 27 26 26 25 26 28 27 26 28 29 26
14 15 18 16 12 11 12 11 10 10 10 9 7 7 6 5 5 6 7 6 5 5 6 6 5 5 4 4 4 4 6 8 8 8 7 7 7 7 7 7 7 8 9 9 9 10 11 11 11 12 13 14 15 16 16 17 18 18 19 19 20 21 21 21 22 23 24 23 23 25 26 26 26 27 27 27 26 26 26 26 26 25 25 26 26
14 15 18 17 12 10 11 11 10 10 11 10 8 8 7 7 7 7 7 7 7 7 6 6 6 6 4 3 3 3 7 8 8 7 6 6 6 7 7 7 7 7 8 8 8 9 10 10 10 11 12 13 13 14 15 16 17 17 18 18 19 20 21 21 21 22 22 22 22 23 25 25 25 25 26 26 26 26 25 25 25 24 24 24 25
14 16 18 17 12 9 10 10 10 10 11 10 9 8 8 7 7 7 7 7 7 7 7 7 7 6 5 6 4 6 8 9 9 9 7 6 7 7 7 7 7 7 7 7 8 8 8 9 10 10 11 11 12 13 14 15 15 16 17 18 19 19 20 20 20 22 22 22 21 22 23 23 22 23 24 25 25 25 25 24 24 23 23 22 22
15 15 17 17 13 10 10 10 10 9 10 9 9 9 8 7 7 7 8 8 8 7 7 8 7 6 7 8 7 8 8 8 10 10 9 8 7 7 7 7 7 7 6 7 7 7 7 8 8 9 10 10 11 11 12 13 14 15 16 17 18 19 20 19 20 21 22 21 21 22 22 22 21 21 21 22 22 22 23 23 22 22 22 22 21
14 14 16 17 16 13 11 11 10 10 10 10 9 9 8 8 7 7 8 8 8 8 8 8 8 7 7 7 6 8 8 9 10 10 9 8 8 7 8 8 7 6 6 7 6 6 7 7 8 8 9 10 10 10 10 11 12 13 14 15 16 17 19 19 19 20 21 21 21 22 22 21 20 19 19 20 19 19 20 20 20 19 20 20 20
14 13 14 16 16 14 12 11 10 10 10 10 10 9 9 9 9 8 9 9 9 9 9 9 9 8 7 8 8 9 10 10 10 10 9 8 8 9 9 8 8 7 7 7 7 7 7 7 8 8 9 9 9 10 10 10 10 11 12 13 14 15 17 18 19 19 20 20 20 20 21 21 19 19 19 19 18 18 18 18 17 17 17 17 18
15 14 14 14 15 15 14 13 12 10 10 10 11 10 10 10 10 10 9 9 10 10 10 10 9 9 8 8 9 10 10 10 9 9 9 9 9 10 9 9 8 8 8 8 8 7 7 7 8 8 9 9 9 10 10 10 10 9 9 10 11 13 15 16 17 18 19 19 18 18 20 20 18 18 19 18 17 17 17 17 16 16 15 15 16
14 14 14 14 13 14 13 13 12 12 11 11 12 12 12 12 12 11 11 10 10 10 10 10 10 10 10 10 10 10 10 10 9 9 10 10 10 10 10 9 9 9 8 8 9 8 9 9 9 9 9 10 10 10 10 10 10 9 8 8 8 9 12 15 16 16 17 18 17 17 18 19 17 17 18 18 16 15 15 16 16 16 15 13 13
14 13 13 13 13 13 13 12 12 12 12 12 12 12 12 12 12 12 12 11 11 11 11 11 11 11 11 11 11 11 11 10 10 10 10 10 10 11 11 10 10 10 9 10 10 10 10 10 10 10 10 10 11 11 11 10 10 9 9 7 5 7 11 15 15 14 16 18 16 15 17 17 16 16 17 17 16 16 15 14 14 14 13 12 12
13 13 13 13 12 12 13 13 12 12 12 12 12 12 12 12 12 12 12 12 12 12 12 13 13 13 13 13 12 12 12 12 12 11 11 11 11 11 11 11 11 11 11 11 11 11 11 11 11 11 11 11 11 11 11 11 10 10 10 8 7 9 13 15 13 13 15 17 15 14 15 16 16 16 16 16 15 15 14 14 14 14 12 11 11
12 12 13 14 13 13 13 13 12 13 13 13 13 13 13 13 13 13 12 12 13 13 13 14 14 14 14 14 13 13 13 12 12 12 12 12 12 12 11 11 11 12 12 12 12 13 13 13 13 13 13 13 12 12 12 12 11 11 10 10 11 13 15 14 12 12 14 15 14 12 13 14 15 15 15 15 15 14 13 13 14 14 13 10 9
12 12 12 13 13 13 13 13 12 13 13 13 13 14 14 14 14 14 14 14 14 13 14 14 14 14 14 14 14 14 14 13 13 14 14 14 14 13 13 13 13 13 13 13 13 14 14 14 14 14 14 14 14 14 13 13 12 12 12 13 15 16 16 14 12 12 13 13 13 11 11 12 14 14 14 14 14 14 13 13 14 14 13 11 9
13 13 12 13 13 13 13 13 14 14 13 14 14 14 14 14 15 15 15 15 15 15 15 15 15 15 15 15 15 15 15 14 14 15 16 16 16 16 15 15 14 14 14 14 14 15 15 15 15 15 15 15 15 15 15 14 13 13 14 16 18 18 17 15 12 11 12 13 12 11 10 11 12 13 12 13 13 14 14 13 13 13 12 10 9
Wind_Direction
101 99 97 95 93 92 91 90 90 89 90 91 92 92 91 89 86 84 83 77 74 74 69 65 60 55 51 45 39 34 29 23 18 16 15 13 12 9 7 7 7 6 2 2 2 358 355 353 354 355 355 351 347 345 344 342 340 336 332 329 325 324 323 317 310 305 305 307 308 308 310 310 307 304 301 298 294 289 287 281 264 247 240 237 237
103 100 99 98 96 95 94 93 94 92 92 92 91 92 92 90 87 85 81 76 74 73 69 65 60 56 52 45 40 35 29 23 19 16 14 13 13 11 8 7 6 5 3 2 1 359 356 354 355 356 354 352 349 347 345 343 341 336 333 332 326 323 323 317 312 307 306 308 309 308 308 309 306 305 305 304 301 295 290 288 278 264 255 242 233
106 103 103 101 98 99 97 96 96 95 93 92 90 90 90 88 87 84 82 78 74 70 68 65 61 57 53 47 41 35 29 23 18 16 14 12 12 12 10 9 7 5 5 4 1 0 359 356 356 356 355 353 349 348 346 343 341 337 333 332 327 322 321 317 313 309 306 306 307 307 307 308 305 303 303 302 301 298 292 288 284 277 271 257 239
112 108 106 106 103 101 100 99 98 96 93 91 89 88 87 85 84 81 79 77 72 70 68 65 63 58 53 49 42 34 28 22 17 15 13 11 11 11 11 10 8 7 6 4 3 2 360 359 359 359 356 354 350 348 346 343 340 337 333 332 328 324 321 318 313 309 306 303 303 304 304 304 302 300 301 300 298 296 292 287 283 277 274 270 259
115 112 110 110 107 104 103 102 99 96 93 91 88 87 84 83 80 77 76 74 70 69 68 66 65 60 54 49 41 34 27 20 15 13 11 11 10 10 12 11 9 8 5 4 6 5 3 2 2 1 358 355 352 348 345 342 340 336 334 331 329 325 321 318 313 308 304 301 301 302 301 301 300 299 299 299 298 298 295 290 285 279 274 272 267
117 115 113 112 110 108 106 103 100 97 94 92 89 86 83 82 79 76 75 74 72 71 69 67 66 61 55 49 42 35 27 20 18 14 11 9 7 10 14 12 10 9 7 8 9 8 6 5 2 1 360 355 351 347 343 341 338 335 333 330 327 324 320 317 314 309 304 300 299 300 300 300 300 300 301 300 299 297 297 294 289 282 275 271 267
120 116 115 114 113 111 108 105 102 99 96 93 89 85 83 80 79 76 74 74 75 74 73 71 67 62 57 50 43 35 26 22 20 18 13 5 4 12 15 11 10 11 11 11 12 9 7 6 4 2 359 354 350 346 342 338 334 330 329 327 324 322 319 316 314 311 307 304 301 300 300 300 299 299 301 302 299 294 292 292 289 284 279 270 262
122 119 119 117 114 112 109 105 102 99 97 93 89 86 83 80 78 78 75 74 73 74 75 75 71 65 58 51 44 36 27 22 20 19 17 9 5 11 14 12 9 11 13 11 10 10 7 5 4 1 359 356 351 345 340 337 332 327 325 324 321 319 317 314 313 312 310 306 303 302 300 300 300 299 301 302 300 297 297 298 297 296 295 284 264
124 122 120 117 115 112 108 104 101 98 95 90 87 85 82 81 80 80 79 76 74 74 75 75 73 67 60 52 44 35 27 22 20 19 18 14 8 3 8 13 10 10 13 10 9 9 6 4 2 360 359 355 350 344 339 335 331 325 321 320 319 316 313 310 308 308 308 306 304 304 302 301 301 301 301 300 298 299 301 301 298 296 296 291 277
125 124 120 117 117 113 109 106 101 97 92 88 86 83 81 80 80 80 80 79 76 75 74 75 72 66 59 51 43 35 26 21 22 27 25 22 16 2 2 10 12 12 11 8 8 7 4 2 359 357 356 352 349 346 338 331 328 324 321 319 316 311 305 301 300 302 304 304 304 304 302 299 299 299 298 296 296 296 296 295 294 294 292 289 283
126 124 121 120 118 113 110 107 102 97 93 88 85 82 79 79 78 78 80 78 78 76 74 73 71 68 62 52 44 34 24 20 24 32 36 36 27 12 4 8 12 13 12 9 7 4 2 1 358 355 354 351 349 346 338 332 329 328 326 324 321 315 306 300 300 303 304 303 301 301 299 296 296 296 295 295 295 293 292 292 293 294 293 289 287
128 125 123 121 117 113 110 106 100 94 90 88 85 81 79 78 79 80 80 78 78 76 74 73 71 70 66 55 45 32 24 22 25 31 40 43 34 20 10 11 13 13 13 11 7 4 1 359 357 354 352 351 349 346 340 335 333 332 331 330 329 324 317 309 306 305 304 302 301 299 296 295 294 293 293 294 294 292 291 290 289 289 289 287 285
128 125 123 119 115 112 109 104 99 95 91 91 90 88 86 85 84 85 84 82 80 75 73 72 70 69 68 60 47 32 23 23 26 30 37 41 37 27 15 13 14 13 14 13 8 5 2 359 357 354 352 352 352 349 344 337 334 333 333 334 332 328 325 319 312 310 308 306 304 300 298 296 294 292 292 293 293 293 290 286 284 283 281 280 280
126 124 121 118 116 114 111 108 105 103 101 100 98 96 96 94 94 94 93 89 85 80 76 71 68 67 65 65 52 33 23 24 28 30 33 36 35 30 20 15 13 12 14 12 7 6 4 360 357 354 352 353 354 354 349 341 337 335 334 335 334 331 329 327 324 321 318 314 307 302 300 297 293 291 291 290 289 287 285 284 282 280 278 277 279
127 126 123 122 122 119 116 114 111 109 107 104 101 99 99 100 100 98 96 92 87 84 79 73 70 66 62 65 60 37 23 23 29 31 31 34 32 29 22 15 13 11 11 10 8 8 4 359 356 356 356 355 356 358 356 347 340 338 337 336 335 334 332 330 328 324 320 318 312 307 305 301 297 295 292 290 287 284 283 282 279 279 280 279 278
129 129 127 127 125 123 121 118 114 111 108 106 105 104 104 104 103 101 99 95 90 86 82 77 71 67 62 62 65 46 26 23 29 31 31 34 32 25 18 11 10 10 8 6 7 7 6 5 6 5 2 357 355 358 358 353 346 340 339 338 336 335 334 331 328 324 322 322 317 314 313 309 306 303 298 293 291 289 286 280 275 272 271 272 272
133 132 130 129 127 126 124 121 117 115 112 110 109 108 108 104 101 101 99 95 93 89 87 85 76 69 63 57 62 56 33 25 28 31 31 34 32 20 12 8 5 5 8 5 4 9 13 18 20 14 2 354 353 354 357 358 353 344 340 339 337 336 336 333 331 329 328 325 321 320 320 318 315 313 307 298 295 295 288 277 271 265 259 259 263
136 134 132 131 130 129 127 124 121 119 115 114 114 113 112 107 102 101 99 95 95 91 89 90 84 76 69 58 57 60 38 24 24 28 29 31 32 21 9 6 360 359 7 5 3 12 12 10 15 12 1 354 353 353 355 357 356 350 344 342 339 338 338 336 332 331 330 327 326 327 327 326 325 323 317 306 302 303 292 278 275 266 251 246 251
138 136 134 133 131 130 128 125 123 121 118 118 117 114 112 107 104 104 101 97 95 90 87 87 84 81 77 66 55 52 38 16 15 22 26 26 28 24 11 6 356 349 357 2 2 10 8 360 4 7 2 358 354 352 353 356 357 354 349 345 340 338 339 337 333 335 334 332 332 333 333 333 332 329 324 315 310 310 301 290 286 273 253 248 249
138 136 134 133 131 129 128 126 124 124 122 120 118 114 110 105 101 97 93 92 90 87 86 85 81 76 72 71 57 41 36 17 6 13 22 23 23 21 13 8 356 341 345 356 358 3 5 358 356 359 358 357 353 350 352 358 360 355 351 350 343 338 340 339 336 338 338 335 334 334 336 337 335 333 330 325 320 320 316 307 297 281 262 253 249
139 137 135 134 133 130 128 127 125 125 124 122 118 115 111 108 104 97 89 87 84 81 83 82 81 78 65 64 62 30 26 24 11 12 19 20 19 20 15 8 357 342 338 350 354 355 359 357 353 352 353 355 355 351 350 360 3 358 353 353 346 341 341 340 338 339 339 337 337 336 337 339 338 337 336 332 330 331 331 325 314 301 280 258 247
141 139 138 136 134 132 130 130 130 129 129 128 121 117 115 110 107 101 93 89 82 77 77 74 73 79 69 58 58 34 16 20 16 15 19 16 14 15 12 7 1 350 339 344 348 347 350 350 349 348 348 353 355 352 354 3 5 1 356 353 348 346 345 341 340 341 341 340 340 340 340 341 340 340 340 339 339 342 342 340 338 337 324 274 246
143 142 139 136 135 135 134 135 137 137 137 135 127 122 119 113 106 101 94 90 85 77 75 74 69 70 70 59 53 50 34 16 8 11 16 12 8 8 6 3 3 354 340 338 342 341 343 344 345 345 346 352 354 352 359 7 3 360 360 357 353 351 348 343 343 345 344 343 344 344 344 343 343 344 344 344 346 347 348 352 355 358 359 351 305
144 141 140 139 139 140 141 143 144 143 141 138 132 126 122 114 102 95 86 81 82 76 69 70 68 63 64 60 49 46 42 24 7 6 11 9 5 3 0 358 358 354 344 339 339 337 336 338 342 342 343 355 357 351 359 8 359 354 360 2 359 355 353 349 347 346 345 346 347 346 345 347 349 349 348 348 351 354 356 2 7 8 7 9 8
145 144 144 144 145 146 148 149 148 148 147 142 135 129 124 116 102 94 86 76 73 73 66 64 63 58 56 57 50 42 36 28 17 8 6 7 4 1 358 356 355 355 352 344 339 336 333 334 341 341 342 359 1 351 355 5 358 350 357 1 360 357 355 352 349 347 349 349 347 346 347 350 353 354 353 354 357 2 4 7 11 15 15 14 14
147 148 148 149 151 153 152 151 149 149 149 142 133 125 114 108 101 95 93 84 71 68 65 60 60 57 50 47 49 44 34 27 20 11 6 4 2 359 358 355 354 357 359 351 344 341 338 340 346 342 342 359 3 351 353 2 359 354 357 358 357 357 356 353 352 352 352 351 349 348 348 351 354 358 360 2 4 6 8 9 11 13 14 14 16
150 152 151 153 157 156 152 151 150 150 149 141 132 125 114 104 95 80 77 82 77 72 67 58 54 54 48 41 41 42 38 29 19 9 4 1 357 356 356 355 354 357 358 352 347 342 337 342 351 348 345 357 2 355 357 2 359 357 359 357 355 356 356 354 354 355 353 351 351 352 352 354 357 1 4 6 8 10 11 13 13 12 11 14 17
153 154 154 156 158 154 153 156 155 151 149 139 124 114 106 99 92 75 56 48 51 58 60 58 51 47 46 41 34 32 36 30 16 6 359 355 352 351 350 350 352 352 351 349 344 339 336 341 350 352 351 356 359 357 360 3 359 356 359 359 358 356 355 355 356 355 351 349 350 355 358 359 1 3 5 8 11 13 15 17 17 14 13 18 20
155 156 157 158 156 152 157 161 156 146 142 130 107 91 87 88 90 86 74 66 68 63 58 56 44 35 44 47 36 31 30 18 6 3 360 355 353 349 347 350 352 350 349 348 341 335 337 346 351 352 353 357 358 356 358 2 1 357 357 1 1 357 356 357 357 356 353 351 352 356 360 2 3 4 6 9 12 14 17 19 21 20 20 23 23
158 160 160 158 156 157 161 160 150 144 139 126 111 103 101 100 97 95 93 94 94 85 76 74 63 47 53 50 29 19 15 4 0 3 2 359 358 355 353 357 357 353 351 348 340 336 342 350 352 353 355 357 357 355 353 358 2 359 356 1 3 358 357 360 358 357 359 358 355 356 0 4 6 6 7 9 11 13 17 20 22 24 24 25 25
161 163 162 160 160 162 161 156 151 150 147 139 134 131 128 123 114 106 103 100 94 83 76 79 81 75 71 59 13 346 346 356 4 4 1 0 360 359 356 354 353 356 355 344 333 337 351 353 351 355 357 356 358 355 350 354 2 1 355 359 3 359 359 2 360 357 1 2 358 358 2 5 7 9 9 10 10 12 16 20 21 23 25 26 27
165 167 162 160 164 167 160 155 156 156 154 157 159 158 154 148 142 134 125 117 111 101 86 73 71 67 60 62 41 335 332 351 2 2 2 3 0 356 351 343 340 350 355 343 332 341 357 356 353 357 358 355 357 357 350 351 360 0 355 359 3 359 358 1 360 357 1 4 2 0 3 6 9 11 13 13 14 13 15 17 19 20 24 27 30
168 168 161 159 168 171 160 157 160 157 157 165 171 176 176 168 162 161 160 155 147 136 121 99 79 62 27 15 13 339 334 349 357 1 5 5 359 350 343 338 339 348 351 345 345 353 359 357 355 357 358 355 355 356 352 351 356 358 355 357 2 360 356 358 359 357 359 4 5 4 4 6 8 12 14 16 17 16 16 17 18 19 22 25 28
170 169 163 162 170 172 162 162 166 164 165 170 171 175 177 161 160 171 173 173 178 181 174 152 106 74 48 25 5 346 342 347 352 1 6 4 360 350 337 336 348 359 351 346 351 354 357 358 357 357 358 357 355 354 354 353 354 357 355 354 358 359 356 357 359 357 358 4 6 5 6 7 8 10 14 16 18 18 18 18 19 20 22 24 27
168 163 161 166 174 173 166 167 171 170 170 172 173 173 166 157 171 187 176 176 189 194 190 185 179 162 31 28 17 6 3 357 354 2 4 2 1 350 334 334 353 5 0 359 358 354 354 358 358 356 356 357 355 354 355 354 354 356 355 353 355 357 357 358 358 356 357 3 4 2 6 10 11 12 14 16 18 20 20 20 22 23 24 25 28
169 161 164 173 178 175 170 172 176 177 175 174 177 177 167 170 189 197 180 190 209 209 196 190 189 202 244 290 1 11 5 355 348 348 348 353 356 342 323 326 351 1 358 2 1 353 352 357 356 355 356 356 354 354 355 354 354 355 354 353 355 356 355 357 358 355 355 1 2 1 4 10 12 13 16 18 20 22 23 24 25 27 28 29 30
173 165 170 179 179 174 176 176 172 171 172 173 177 179 178 187 204 210 208 209 214 242 244 200 184 197 218 226 240 321 338 331 325 320 316 326 336 323 308 316 347 353 351 359 359 353 353 356 356 355 355 355 354 354 354 355 354 354 353 352 354 355 353 355 358 355 354 360 2 0 3 10 13 15 18 19 20 23 26 28 27 28 30 32 33
176 170 173 179 178 174 177 175 165 164 173 182 189 192 194 199 206 215 224 221 207 229 253 244 210 213 218 213 219 263 301 300 292 286 289 301 313 310 307 321 344 346 346 352 354 352 353 355 356 356 355 355 355 353 354 355 354 353 352 351 352 353 352 354 358 357 355 360 3 2 2 7 12 15 17 19 20 22 27 30 31 31 32 32 35
174 170 173 179 180 177 178 178 173 176 188 200 207 206 206 213 221 225 228 227 217 223 239 244 244 252 246 210 208 257 292 293 284 283 292 306 316 316 318 328 337 340 342 344 347 351 353 351 354 356 355 356 356 354 354 355 353 352 353 352 352 353 353 354 357 357 356 359 3 4 3 5 9 13 16 19 21 23 26 29 32 36 37 35 35
171 166 168 176 181 181 182 182 180 183 192 203 213 214 209 214 225 232 230 227 225 229 238 245 251 256 242 194 196 289 310 305 295 294 301 307 310 312 316 323 326 329 334 336 339 346 349 347 350 353 352 353 355 354 354 355 353 352 353 354 353 353 353 354 355 355 355 356 1 4 4 4 7 10 14 18 22 23 26 29 32 36 41 42 39
172 162 165 177 187 188 188 189 189 190 196 204 214 220 216 213 223 234 236 231 229 233 238 247 257 251 219 205 235 290 303 294 287 289 294 297 298 302 308 314 315 317 323 329 332 338 342 342 343 346 347 347 348 349 352 354 353 353 354 355 355 353 353 353 354 354 354 355 358 2 3 5 8 10 12 16 20 22 26 30 31 33 38 43 44
176 165 168 182 194 195 192 195 197 199 203 208 213 220 224 221 223 232 237 235 234 237 240 247 254 243 214 215 250 285 292 283 278 279 281 282 286 293 297 298 299 305 314 319 321 326 331 333 333 337 339 339 341 343 346 349 352 353 353 355 356 355 354 353 353 353 354 354 355 358 1 3 8 11 11 14 19 23 26 30 32 33 35 37 41
182 173 171 180 191 197 198 199 201 204 209 213 217 221 227 232 232 232 233 232 232 238 244 249 255 244 214 209 246 281 282 271 265 263 265 272 280 286 289 289 289 296 305 307 308 313 319 322 323 326 329 332 335 336 337 340 345 349 351 354 357 357 357 356 354 353 354 352 352 356 359 1 5 10 11 12 17 22 25 31 36 37 35 34 34
186 182 177 179 188 198 204 207 209 211 212 215 219 223 227 232 236 237 234 229 227 230 236 242 248 245 223 211 232 255 259 256 256 259 265 273 278 277 277 280 282 285 291 295 296 299 305 309 310 312 316 320 325 329 330 332 336 341 346 352 356 357 358 358 355 353 354 352 350 354 358 359 2 7 7 7 12 17 19 25 34 40 42 41 34
187 187 184 184 189 197 204 209 214 217 217 217 220 224 226 229 234 237 238 233 227 228 233 239 242 244 240 232 233 241 248 255 262 267 268 270 270 270 270 271 273 274 277 282 285 285 290 295 298 302 305 309 313 319 322 323 326 333 339 345 353 358 358 356 355 354 354 353 352 354 356 356 360 4 4 4 8 13 13 14 18 25 38 49 47
189 191 191 193 196 199 204 209 213 217 220 221 221 223 225 226 230 234 236 236 233 232 236 239 240 240 243 247 249 251 256 262 265 267 268 267 267 268 269 267 267 268 271 275 278 277 277 281 284 287 292 297 301 306 311 313 316 322 326 332 346 356 355 354 355 356 355 353 353 354 355 356 357 360 1 1 3 5 6 7 8 12 21 38 50
191 194 195 199 203 204 209 214 216 218 221 223 224 226 228 228 228 229 229 231 234 237 241 245 247 247 246 248 251 253 256 260 263 265 268 268 267 267 266 265 263 264 266 269 272 272 271 273 275 275 279 285 289 291 297 302 306 310 314 317 325 338 345 350 354 354 355 356 355 352 355 357 356 355 357 359 359 0 360 359 1 6 11 17 23
196 198 200 205 208 208 211 216 218 221 223 224 225 228 231 233 233 233 231 230 230 234 240 244 249 252 253 253 255 255 257 260 262 263 266 269 269 267 265 261 257 258 262 265 267 267 267 268 269 269 272 277 279 281 285 289 292 299 303 297 288 302 325 341 347 346 351 357 356 349 351 356 355 352 354 355 354 356 358 355 351 352 0 9 10
206 204 205 209 211 214 217 218 219 220 222 225 228 229 230 233 235 237 238 238 235 236 239 242 245 248 251 252 254 255 256 259 262 263 266 269 270 268 266 262 257 255 257 260 263 264 264 263 263 263 265 267 269 273 277 279 280 286 291 284 280 293 312 328 335 336 343 352 353 347 347 349 349 349 352 353 352 352 354 354 348 343 345 358 5
213 211 213 214 214 217 222 224 226 227 225 225 228 229 228 230 234 236 239 242 243 242 244 246 248 252 254 256 257 258 258 259 262 265 267 270 270 269 268 266 262 258 256 257 260 262 262 261 260 259 259 260 262 265 269 271 272 276 276 273 275 288 303 315 320 324 331 339 345 344 340 339 343 345 345 347 351 350 347 350 348 339 338 349 357
213 217 220 220 220 222 225 226 230 234 232 230 231 232 230 231 233 234 235 238 242 244 247 249 251 253 255 257 258 258 258 258 262 268 274 276 276 275 275 272 268 262 258 257 258 259 259 259 258 257 256 257 258 259 261 263 265 268 269 269 273 283 295 302 306 312 319 325 332 335 327 324 333 339 336 338 345 346 341 342 342 334 332 341 348